Location: Unspecified
(49.2170°N, 0.0000°E)
Time: 11:37:24
(UTC+00:00)

A-11 Canister half - Pass Details

Date: 24 June 2019
Orbit: 1526 x 1683 km, 47.3° (Epoch: 16 August)

Event Time Altitude Azimuth Distance (km) Brightness Sun altitude
Rises 08:13:43 0° 280° (W) 4,702 11.1 38.7°
Reaches altitude 10° 08:16:48 10° 278° (W) 3,708 10.6 39.2°
Maximum altitude 08:26:02 71° 197° (SSW) 1,604 9.8 40.7°
Drops below altitude 10° 08:35:17 10° 116° (ESE) 3,709 12.1 42.2°
Sets 08:38:21 0° 114° (ESE) 4,703 12.3 42.7°
